Location: Huberhof
(49.2050°N, 7.4980°E)
Time: 05:19:02
(UTC+00:00)

FALCON 9 DEB - Pass Details

Date: 29 October 2020
Orbit: 382 x 399 km, 53.0° (Epoch: 25 November)

Event Time Altitude Azimuth Distance (km) Brightness Sun altitude
Rises 16:40:50 0° 231° (SW) 2,312 8.2 -5.1°
Reaches altitude 10° 16:42:55 10° 227° (SW) 1,454 6.9 -5.5°
Maximum altitude 16:46:06 54° 149° (SSE) 497 3.3 -6.0°
Drops below altitude 10° 16:49:18 10° 71° (ENE) 1,454 5.1 -6.5°
Enters shadow 16:49:34 - 70° (ENE) 1,566 5.3 -6.5°
